CAPE
0 0 0 0 0 0 0 0 13 19 49 296 159 157 420 367 997 1517 1789 1991 1999 1930 2380 2797 3086 3066 2967 2523 3331 2657 2897 2520 3379 3437 2675 2411 2791 2441 1802 1446 1231 1253 1086 1210
0 0 0 0 0 0 0 0 0 0 0 32 94 65 544 785 875 1398 2102 2354 2079 2282 2492 2617 2970 3192 3154 3417 3677 2559 3359 3270 3558 3016 2808 2691 2614 2392 1803 1343 1237 965 839 540
0 0 0 0 0 0 0 0 0 4 22 261 57 135 214 545 1328 1529 2211 2380 2363 2314 2397 2846 3356 3544 3578 3986 4051 3630 3988 3407 3148 2942 2943 2661 2359 1875 1597 1423 1129 708 589 763
0 0 0 0 0 0 0 0 0 0 3 2 32 202 286 396 797 1657 2124 2445 2744 2309 2572 2996 3440 3450 3646 4156 4074 3772 3785 3327 3042 2844 2528 2331 1875 1555 1383 1090 855 701 351 513
1 0 0 0 0 0 0 0 0 0 0 0 9 409 545 475 1130 1426 2282 2483 2924 2443 2814 3496 3467 3701 3968 4005 4024 3768 3465 2983 2722 2222 1911 1766 1432 1448 851 802 571 399 412 160
38 8 3 81 456 30 65 35 1152 97 258 4 542 393 1725 1666 1420 1891 2067 2540 2778 3104 2966 3647 3847 3940 4113 4261 3897 3673 3185 1998 1841 1449 1292 1368 1650 1207 283 280 635 281 183 48
163 262 133 446 213 106 211 1366 1262 1397 1679 1756 2110 2321 1909 1633 1883 2301 2603 2529 2771 2882 3687 3859 3959 3833 3999 4055 3664 3048 1984 1609 1345 1471 1432 1119 461 291 120 156 367 247 66 45
131 11 413 891 127 129 1745 1634 1378 1377 1496 1743 1945 1655 1781 1958 1961 2129 2528 3165 2987 3536 3899 3989 4195 4157 3919 3395 2476 2125 1560 1403 1040 1184 831 327 203 131 94 60 42 9 21 15
106 31 561 1193 1538 1439 1060 1499 1277 1248 1279 1449 1469 1503 1714 2140 2154 2300 2578 2947 2911 3333 3974 3833 3345 3346 2822 2482 2289 1866 1509 1087 1004 605 294 187 64 32 25 18 11 8 12 18
183 168 188 448 917 737 314 221 572 1264 1341 1335 1471 1494 1659 2119 2289 2532 2584 2638 2712 3328 3620 3263 2971 2608 2269 1887 1776 1678 1419 851 482 362 240 7 1 2 10 20 4 3 3 8
173 108 19 829 576 1050 1029 1046 1172 1449 1652 1587 1513 1522 1783 2023 2170 2470 2757 2651 2596 3318 3080 2947 2838 2605 2100 2354 1971 1856 1321 730 494 161 0 0 0 2 0 0 0 0 5 0
531 277 234 187 108 525 1156 1353 1442 1615 1959 1963 1874 1988 2020 2039 2234 2335 2890 2789 2685 2238 2370 2393 2286 2151 2193 2237 1960 1704 979 612 212 89 25 38 17 0 0 1 0 0 0 0
384 16 19 22 406 984 1127 1023 888 953 1101 1264 1535 1963 2331 2549 2829 2181 2868 2818 2821 2690 2236 2213 2552 2368 2228 2125 1470 1188 1039 523 346 116 127 40 91 36 19 0 0 0 0 0
18 60 318 525 931 814 656 519 372 531 605 646 732 776 821 1178 1463 1191 1450 1336 930 2064 2246 2535 2337 2282 1983 1986 1681 1465 951 624 433 255 275 172 195 99 158 49 26 17 0 0
507 550 830 800 807 630 310 116 137 135 40 139 270 455 549 542 606 1198 1103 34 82 1394 2467 2112 2109 1799 1462 1313 1699 1383 1084 822 484 279 193 295 136 69 42 25 26 5 0 0
751 484 744 553 273 97 32 0 1 1 86 110 149 236 217 235 302 567 1062 1771 1688 2013 2209 1713 1888 1764 1508 1400 1192 1126 642 405 231 284 226 238 44 12 15 15 15 0 0 0
858 444 17 0 2 1 0 0 15 25 29 27 69 260 554 371 357 975 1325 818 1880 2211 1938 1558 1424 1707 1418 1258 1334 827 970 686 342 325 231 77 47 3 6 3 0 0 1 0
1037 511 12 0 0 0 0 0 0 7 13 38 67 64 77 65 206 283 643 1240 1116 1226 1633 1540 1802 1586 1245 731 700 792 664 585 329 200 97 108 6 3 10 10 16 23 32 14
287 66 19 18 28 12 0 0 0 0 2 7 7 24 46 45 60 93 254 482 629 838 595 1059 1006 692 767 721 783 1067 649 352 30 10 12 10 22 9 7 22 20 21 26 1
33 28 22 10 8 7 0 0 0 0 0 11 71 44 11 41 71 104 147 116 88 219 418 608 826 754 921 792 657 521 313 283 77 18 15 11 6 1 0 0 1 2 11 4
13 18 31 61 43 15 1 0 5 12 10 8 14 19 19 23 103 126 140 85 48 55 407 481 628 398 387 412 339 239 162 91 78 134 38 21 26 16 5 0 0 0 0 13
211 312 332 292 203 71 9 7 55 46 33 22 29 260 181 244 68 142 9 1 4 53 224 333 442 327 354 328 378 286 141 105 15 6 33 5 33 32 40 0 0 0 0 3
485 364 327 188 357 513 70 30 136 182 74 128 22 32 232 55 127 117 283 13 0 7 100 246 173 243 265 363 287 177 142 197 65 36 33 14 13 27 10 1 0 0 6 16
964 811 997 594 308 527 476 401 385 276 36 318 55 2 159 20 224 78 2 0 0 6 14 13 32 63 53 41 53 86 32 26 42 20 6 13 4 3 9 2 18 3 1 0
705 550 731 348 612 761 520 307 179 428 636 334 99 96 218 61 22 2 0 0 0 10 0 0 0 0 4 23 56 35 25 13 1 29 23 13 18 13 16 11 7 10 7 6
1236 739 791 454 185 148 343 393 305 104 372 203 199 51 21 11 19 36 2 10 24 34 78 53 60 65 201 249 231 212 101 34 25 22 3 27 48 13 5 1 2 12 8 5
269 136 62 251 81 221 109 193 304 33 53 53 39 43 38 60 5 12 5 40 21 35 76 342 210 104 96 157 106 181 219 296 99 100 27 17 2 1 1 0 6 3 0 0
CIN
0 0 0 0 0 0 0 0 -16 -5 -4 -152 -279 -236 -31 -13 -6 -9 -37 -37 -25 -19 -13 -12 -10 -11 -9 -5 -26 -38 -23 -10 -14 -6 -18 -14 -7 -6 -2 -9 -27 -15 -14 -7
0 0 0 0 0 0 -1 0 0 0 0 -12 -56 -24 -2 -14 -9 -21 -27 -10 -17 -29 -42 -23 -12 -6 -3 -3 -23 -47 -20 -7 -9 -20 -30 -14 -2 -1 -11 -26 -30 -43 -41 -69
0 0 0 0 0 0 0 0 0 -1 -13 -2 -5 -5 -5 -9 -28 -17 -27 -9 -10 -49 -82 -44 -13 -6 -7 -2 -6 -10 -3 -14 -28 -22 -9 -3 -1 -13 -10 -17 -40 -78 -84 -72
0 0 0 0 0 0 0 0 0 0 -1 -8 -16 -3 -10 -24 -26 -15 -18 -21 -10 -23 -39 -39 -10 -4 -5 -2 -10 -11 -11 -15 -8 -15 -19 -19 -24 -30 -43 -45 -61 -86 -134 -109
0 0 0 0 0 0 0 0 -1 0 0 -1 -1 -9 -10 -5 -36 -15 -15 -24 -7 -6 -22 -26 -18 -12 -7 -11 -5 -11 -1 -10 -30 -96 -105 -56 -62 -24 -102 -75 -81 -79 -91 -164
0 -1 0 -18 -60 -181 -22 -2 -11 -2 -3 0 -14 -3 -19 -39 -60 -40 -37 -22 -10 -2 -33 -25 -27 -15 -13 -9 -3 -1 -2 -54 -116 -37 -65 -55 -4 -8 -85 -80 -30 -66 -117 -222
-38 -17 -1 -128 -110 -98 -14 -20 -41 -19 -30 -15 -36 -36 -53 -66 -80 -44 -68 -60 -36 -1 -18 -21 -19 -15 -14 0 0 -7 -47 -63 -50 -41 -23 -26 -46 -26 -36 -44 -28 -23 -134 -110
-130 -123 -6 -34 -168 -227 -8 -26 -40 -20 -59 -45 -60 -79 -69 -85 -92 -76 -71 -63 -33 -2 -5 -1 -2 -15 -8 0 -50 -61 -78 -66 -69 -33 -27 -27 -17 -9 -32 0 0 -4 -1 -3
-161 -221 -28 -30 -50 -86 -59 -60 -67 -52 -39 -44 -33 -51 -73 -78 -82 -78 -65 -63 -49 -2 -1 -6 -55 -36 -20 -23 -35 -40 -43 -41 -28 -31 -60 -38 -42 -102 -20 0 -1 -3 -2 -1
-50 -98 -15 -20 -25 -51 -78 -50 -71 -43 -11 -58 0 -1 -26 -29 -49 -49 -61 -58 -35 -8 -2 -20 -49 -53 -61 -66 -46 -37 -28 -64 -72 -55 -50 -173 0 -76 -56 -11 0 0 0 0
-162 -298 -238 -8 -6 -1 -23 -30 -20 -13 -14 -29 -19 -1 -1 -1 -2 -4 -8 -37 -26 -2 -24 -8 -13 -24 -50 -16 -19 -11 -26 -63 -64 -109 0 0 0 0 0 -1 0 -1 -1 0
-2 -30 -74 -11 -68 -22 0 -1 0 -1 0 -4 -16 -8 -12 -4 -1 0 0 0 -16 -30 -21 -22 -23 -28 -11 -5 -3 -5 -31 -63 -125 -139 -45 -76 -49 0 0 -11 0 0 0 0
-24 -16 -305 -281 -59 -4 -2 -1 -7 -10 -15 -36 -22 -3 0 -1 -17 -9 -19 -7 -26 -1 -4 -2 0 -2 -1 -1 -17 -20 -21 -61 -86 -110 -31 -29 -40 -45 -49 0 0 0 0 0
-100 -26 -6 -26 -1 -1 -15 -45 -61 -53 -58 -68 -62 -60 -81 -49 -38 -50 -25 -28 -12 -19 -2 0 0 0 -6 -3 -3 0 -17 -55 -58 -54 -43 -33 -31 -48 -27 -38 -25 -13 0 0
-3 -74 -18 -31 -5 -36 -81 -132 -90 -89 -100 -86 -89 -93 -93 -91 -70 -49 -77 -25 -73 -16 -8 -7 -6 -12 -22 -11 0 -3 -11 -21 -53 -55 -57 -24 -40 -43 -52 -35 -14 -13 0 0
0 -28 -4 -8 -47 -102 -90 -1 -20 -79 -163 -143 -144 -143 -154 -137 -103 -68 -32 -16 -17 -13 -12 -11 -7 -8 -26 -12 -5 -3 -34 -46 -52 -35 -19 -17 -57 -53 -34 -22 -12 -5 0 0
-6 -84 -43 0 -133 -181 0 0 -186 -176 -165 -162 -146 -102 -58 -107 -76 -1 -2 -13 -6 -1 -2 -27 -36 -12 -25 -19 -2 -8 0 -3 -15 -9 -2 -34 -37 -17 -9 -11 0 0 0 0
0 -47 -38 0 0 0 0 0 0 -150 -166 -128 -103 -121 -117 -132 -85 -43 -1 0 0 -16 -1 -1 -1 0 -15 -42 -21 -10 0 -1 -5 -8 -4 -5 -5 -1 -1 0 -1 -1 -9 -9
-38 -61 -76 -74 -87 -107 -16 0 0 0 -113 -107 -117 -114 -119 -155 -110 -76 -35 -11 -9 0 -8 -1 -4 -32 -18 -21 -20 -21 -25 -5 -22 -53 -39 -4 -34 -19 0 0 0 0 -9 0
-52 -14 -88 -93 -95 -102 -32 0 0 0 0 -121 -35 -64 -171 -132 -112 -53 -34 -53 -88 -16 -1 0 0 -1 -8 -2 -6 -35 -14 -4 -13 -26 -12 -15 -18 -3 0 0 0 -4 -3 -67
-65 -70 -79 -68 -81 -92 -8 0 -9 -19 0 0 0 -4 -3 -103 -57 -51 -44 -74 -104 -82 0 -1 -1 0 0 0 -23 -36 -24 -2 -1 -3 -6 -12 -3 -3 -7 0 -1 0 0 -23
-18 -8 -6 -14 -17 -26 -21 -1 -19 -17 -8 0 -12 -4 -8 -15 -75 -54 -22 0 -81 -65 -2 0 -5 0 0 0 0 -1 0 0 -1 -14 -25 -3 -4 -2 0 0 0 0 0 -5
-2 -3 -3 -8 -2 -7 -18 -11 -2 -5 -6 -4 0 -6 -4 -40 -42 -65 -5 -52 0 -5 -12 -1 -3 0 0 0 0 0 0 0 -4 0 -2 -2 -4 0 0 -9 0 0 -31 -105
-7 -9 -7 -3 0 -6 -5 -15 -15 -2 -22 -1 -10 0 -10 0 -2 -21 0 0 0 -32 -10 -2 -1 -2 -2 -1 -1 0 0 -1 -2 -1 -1 -3 0 -6 -17 0 -41 -6 0 0
0 -12 -3 -2 -4 -12 -5 -5 0 -2 -2 -10 -9 -11 -22 -5 0 0 0 0 0 -32 0 0 0 0 -4 -16 -14 -14 0 -20 -2 -11 -15 -25 0 -3 0 0 0 0 -1 -4
-4 -12 -9 -11 -1 -3 -12 -24 -18 -27 -6 -17 -4 -1 -1 -9 -8 -10 -2 -3 -4 -57 -18 -94 -76 -81 -8 -21 -20 -7 -10 -3 -1 -6 -1 -12 -16 -14 -33 -2 -1 0 0 0
-14 -31 -13 -10 -1 -10 -1 -11 -13 -1 -6 0 -1 0 -1 -8 -4 -1 -3 0 0 -2 -9 -13 -18 -71 -30 -20 -18 -8 -50 -34 -35 -28 -37 -17 0 0 0 0 -27 -8 0 0
Wind_Speed
nan nan nan nan nan nan nan nan nan nan nan 43 44 19 13 25 39 40 29 28 27 25 23 19 20 17 14 10 9 13 14 13 10 5 14 16 15 15 13 11 11 8 6 8
nan nan nan nan nan nan nan nan nan nan nan nan nan nan 27 39 34 28 24 27 27 26 24 21 16 14 16 11 13 16 13 15 14 19 19 17 15 17 18 17 16 14 15 13
nan nan nan nan nan nan nan nan nan nan nan 13 nan 22 35 39 30 25 26 24 25 28 26 25 23 17 13 13 15 16 14 19 21 21 25 23 23 21 21 20 20 17 19 21
nan nan nan nan nan nan nan nan nan nan nan nan nan 19 37 36 26 30 22 24 27 27 25 20 24 20 17 18 19 18 18 18 22 27 29 25 23 21 17 25 25 24 24 25
nan nan nan nan nan nan nan nan nan nan nan nan nan 36 35 45 28 28 25 23 23 24 26 20 21 20 20 24 26 23 22 28 31 38 36 21 14 15 22 21 29 30 33 29
nan nan nan nan 42 nan nan nan 41 nan 24 nan 20 42 38 37 33 29 23 19 21 23 29 27 28 28 26 27 23 25 30 28 25 25 36 26 27 29 25 26 30 33 39 nan
40 24 15 46 48 48 35 39 42 42 43 46 48 48 23 36 34 27 23 22 23 24 33 26 27 27 28 28 28 26 28 28 26 29 33 35 33 30 31 31 37 33 nan nan
44 nan 21 50 43 52 34 39 45 38 38 42 43 45 47 46 35 28 28 28 25 31 34 31 27 30 31 31 30 33 32 34 31 33 32 33 34 30 nan nan nan nan nan nan
35 nan 46 32 46 45 25 38 36 33 37 34 30 40 40 35 33 33 33 32 26 29 31 35 37 37 37 39 39 38 36 34 32 34 33 34 nan nan nan nan nan nan nan nan
37 17 27 26 47 38 39 32 39 35 36 33 28 40 41 41 38 37 36 34 32 31 35 36 38 37 38 41 39 39 38 36 34 33 33 nan nan nan nan nan nan nan nan nan
16 23 nan 53 26 36 36 39 40 32 32 41 36 42 44 44 40 38 38 38 35 41 40 38 36 35 36 38 39 38 38 36 35 33 nan nan nan nan nan nan nan nan nan nan
46 55 50 26 46 35 46 46 47 50 40 39 43 45 40 41 40 38 39 40 42 41 39 42 40 38 34 39 35 37 36 37 36 nan nan nan nan nan nan nan nan nan nan nan
38 nan nan nan 21 3 36 34 36 40 40 42 49 47 45 46 45 36 37 42 46 41 44 39 37 37 37 39 36 34 34 37 34 38 37 nan nan nan nan nan nan nan nan nan
nan nan 16 26 24 28 29 27 24 33 35 38 39 41 38 40 41 44 38 40 34 54 44 43 39 36 38 40 36 36 36 38 38 36 36 35 31 nan 30 nan nan nan nan nan
13 27 24 30 48 28 31 33 30 32 nan 34 35 36 39 39 42 39 42 nan nan 24 47 39 44 38 38 40 34 34 39 37 36 36 34 32 30 nan nan nan nan nan nan nan
17 23 34 38 30 nan nan nan nan nan nan 30 37 36 34 34 32 30 27 31 26 26 29 31 42 32 35 37 39 34 33 34 35 34 30 30 nan nan nan nan nan nan nan nan
21 19 nan nan nan nan nan nan nan nan nan nan nan 33 39 35 29 30 23 22 23 26 26 24 20 23 28 31 30 32 33 32 27 24 27 nan nan nan nan nan nan nan nan nan
22 22 nan nan nan nan nan nan nan nan nan nan nan nan nan nan 26 22 25 25 21 21 20 19 24 25 27 27 28 31 30 27 27 27 nan 34 nan nan nan nan nan nan nan nan
24 nan nan nan nan nan nan nan nan nan nan nan nan nan nan nan nan nan 22 22 22 23 27 21 26 27 27 26 26 27 25 30 nan nan nan nan nan nan nan nan nan nan nan nan
nan nan nan nan nan nan nan nan nan nan nan nan nan nan nan nan nan 23 24 29 nan 23 21 23 25 24 26 26 31 27 32 31 nan nan nan nan nan nan nan nan nan nan nan nan
nan nan nan nan nan nan nan nan nan nan nan nan nan nan nan nan 22 25 25 nan nan nan 26 31 29 29 28 30 31 30 31 nan nan 33 nan nan nan nan nan nan nan nan nan nan
21 22 21 23 19 nan nan nan nan nan nan nan nan 22 16 19 nan 23 nan nan nan nan 27 28 29 32 31 29 29 29 30 33 nan nan nan nan nan nan nan nan nan nan nan nan
22 17 18 17 19 21 nan nan 19 21 nan 20 nan nan 22 nan 22 24 26 nan nan nan 29 29 31 34 30 31 33 32 32 33 nan nan nan nan nan nan nan nan nan nan nan nan
21 21 22 19 18 22 22 19 14 22 nan 25 nan nan 26 nan 26 nan nan nan nan nan nan nan nan nan nan nan nan nan nan nan nan nan nan nan nan nan nan nan nan nan nan nan
17 16 12 15 19 18 17 16 17 25 28 26 nan nan 30 nan nan nan nan nan nan nan nan nan nan nan nan nan nan nan nan nan nan nan nan nan nan nan nan nan nan nan nan nan
12 11 17 18 18 18 18 18 17 24 23 21 21 nan nan nan nan nan nan nan nan nan nan nan nan nan 30 33 32 32 32 nan nan nan nan nan nan nan nan nan nan nan nan nan
20 20 nan 16 nan 18 19 20 15 nan nan nan nan nan nan nan nan nan nan nan nan nan nan 29 29 27 nan 30 29 31 33 30 nan 31 nan nan nan nan nan nan nan nan nan nan
Wind_Direction
nan nan nan nan nan nan nan nan nan nan nan 281 278 280 354 294 303 311 305 315 328 323 311 318 304 308 292 305 285 291 288 275 302 318 281 279 274 267 275 286 265 250 252 257
nan nan nan nan nan nan nan nan nan nan nan nan nan nan 306 293 297 296 316 315 322 321 312 332 313 315 325 328 303 282 294 293 283 265 268 265 271 274 262 263 263 263 252 248
nan nan nan nan nan nan nan nan nan nan nan 292 nan 252 271 276 288 298 314 313 314 321 320 332 322 318 321 326 305 314 290 294 286 288 283 281 272 272 261 256 260 254 250 254
nan nan nan nan nan nan nan nan nan nan nan nan nan 276 272 280 271 286 299 310 307 309 320 319 331 332 326 324 316 308 291 296 297 290 286 289 295 275 286 262 253 250 254 257
nan nan nan nan nan nan nan nan nan nan nan nan nan 272 258 278 274 267 285 297 304 310 309 319 327 324 316 314 316 305 304 315 317 325 306 297 321 308 307 300 266 263 259 253
nan nan nan nan 211 nan nan nan 221 nan 218 nan 263 262 258 267 273 264 270 276 292 289 296 305 305 312 312 308 305 311 317 313 304 304 296 305 309 296 295 277 280 281 267 nan
205 209 221 235 234 235 207 213 208 207 214 216 225 246 259 264 264 270 282 264 265 286 292 296 301 306 306 307 304 304 297 301 307 302 308 302 296 290 292 284 284 272 nan nan
232 nan 216 241 240 248 237 214 212 202 213 227 238 245 256 260 272 283 283 277 272 273 279 281 287 291 292 294 291 292 298 295 299 304 300 297 301 297 nan nan nan nan nan nan
232 nan 208 243 248 249 245 252 249 219 214 217 240 252 262 270 277 283 285 282 279 277 279 276 277 282 286 287 291 295 298 298 300 300 303 303 nan nan nan nan nan nan nan nan
203 247 334 266 247 250 251 250 252 249 228 233 236 260 266 270 274 277 274 282 283 279 278 274 278 280 284 290 294 298 301 298 298 304 308 nan nan nan nan nan nan nan nan nan
247 234 nan 259 247 262 251 259 263 255 241 230 238 255 261 269 272 278 277 276 272 274 278 281 282 283 282 289 295 296 295 299 296 301 nan nan nan nan nan nan nan nan nan nan
243 225 242 225 233 174 244 253 253 260 255 242 244 250 252 258 264 268 276 272 270 270 268 274 279 279 282 287 291 291 294 295 299 nan nan nan nan nan nan nan nan nan nan nan
248 nan nan nan 300 26 257 254 255 259 251 241 241 242 249 257 257 258 262 276 273 272 275 268 268 273 274 279 280 286 294 296 294 293 295 nan nan nan nan nan nan nan nan nan
nan nan 325 294 292 258 251 260 261 253 249 247 244 248 247 249 247 255 256 262 236 269 269 270 271 267 269 271 275 279 281 288 285 285 286 289 293 nan 297 nan nan nan nan nan
285 266 248 247 262 250 251 251 259 256 nan 254 246 243 244 247 257 260 274 nan nan 262 255 258 268 265 265 266 268 276 280 280 277 279 279 280 280 nan nan nan nan nan nan nan
249 260 261 274 290 nan nan nan nan nan nan 249 245 240 237 243 250 258 274 289 287 289 256 261 253 260 266 270 272 278 276 279 279 284 289 289 nan nan nan nan nan nan nan nan
276 245 nan nan nan nan nan nan nan nan nan nan nan 233 237 234 242 256 248 278 264 262 257 277 295 283 271 271 280 275 274 276 282 282 285 nan nan nan nan nan nan nan nan nan
279 275 nan nan nan nan nan nan nan nan nan nan nan nan nan nan 241 245 243 249 252 252 262 278 289 287 283 285 282 276 281 287 286 282 nan 280 nan nan nan nan nan nan nan nan
285 nan nan nan nan nan nan nan nan nan nan nan nan nan nan nan nan nan 242 249 250 258 255 260 285 288 292 294 291 282 287 287 nan nan nan nan nan nan nan nan nan nan nan nan
nan nan nan nan nan nan nan nan nan nan nan nan nan nan nan nan nan 249 253 264 nan 263 258 271 277 269 275 274 277 268 269 272 nan nan nan nan nan nan nan nan nan nan nan nan
nan nan nan nan nan nan nan nan nan nan nan nan nan nan nan nan 259 256 259 nan nan nan 261 270 267 269 267 276 277 278 268 nan nan 273 nan nan nan nan nan nan nan nan nan nan
284 280 279 273 281 nan nan nan nan nan nan nan nan 271 260 265 nan 269 nan nan nan nan 266 271 268 261 267 265 269 274 278 270 nan nan nan nan nan nan nan nan nan nan nan nan
263 261 268 270 262 265 nan nan 273 276 nan 262 nan nan 267 nan 271 273 277 nan nan nan 278 277 273 265 256 268 265 266 267 268 nan nan nan nan nan nan nan nan nan nan nan nan
254 247 248 248 257 263 263 259 260 276 nan 278 nan nan 291 nan 283 nan nan nan nan nan nan nan nan nan nan nan nan nan nan nan nan nan nan nan nan nan nan nan nan nan nan nan
255 250 255 264 262 271 278 265 278 284 290 292 nan nan 292 nan nan nan nan nan nan nan nan nan nan nan nan nan nan nan nan nan nan nan nan nan nan nan nan nan nan nan nan nan
254 270 265 264 280 281 282 286 278 288 295 290 290 nan nan nan nan nan nan nan nan nan nan nan nan nan 292 293 291 289 284 nan nan nan nan nan nan nan nan nan nan nan nan nan
266 270 nan 292 nan 274 285 281 276 nan nan nan nan nan nan nan nan nan nan nan nan nan nan 309 308 305 nan 296 296 296 293 295 nan 294 nan nan nan nan nan nan nan nan nan nan